sat.trackr.live / text

‹ back to catalog

STARLINK-37745

NORAD 69232 · 2026-115X

PAYLOAD ACTIVE UNKNOWN

§ Identity

Operator
Country
US
Launch date
2026-05-26
Launch site
AFWTR
Launch vehicle
Mass (kg)
RCS (m²)

Purposes: comms

External: N2YO · Heavens-Above · Gunter

§ Orbital elements

Epoch: 2026-09-19T23:16:11.663616Z

Period
93.91 min
Inclination
97.2848°
Eccentricity
0.0000996
Mean motion
15.33453878 rev/d
Perigee alt
464.8 km
Apogee alt
466.2 km
Semi-major
6,843.7 km
B*
4.6326e-4
RAAN
279.1438°
Arg perigee
105.1537°
Mean anomaly
254.9815°
Rev number
1,921

§ Raw data

STARLINK-377451 69232U 26115X   26262.96957944  .00014914  00000+0  46326-3 0  99902 69232  97.2848 279.1438 0000996 105.1537 254.9815 15.33453878 19216

JSON: /api/v1/satellites/69232 · /tle

For live sub-satellite position, see the globe view (requires WebGL).

§ Visibility from observer

Set your observer location to see the next 7 days of passes ≥ 10°. The values pass through the URL so the page stays shareable.

No JS? Fill the form by hand. The geolocation button needs JavaScript.